This demonstration page uses our WeatherBlox Daily Observations layout. Learn more.

41.55636, -103.73856

Hourly Observations for May 25, 2016

Temp ( °F °C ) Dew Point ( °F °C ) Humidity (%) Winds ( mph kmh ) Pressure ( in mb ) Visibility ( mi km ) Precip ( " mm )
12:53 am 00:53 Clear 49 9.4 45 7.2 86 86 Calm 29.81 1009 10 16.0934 0 0
1:22 am 01:22 Mostly Cloudy 48 9 45 7 87 87 NW 7 11 29.91 1013 10 16.0934 0 0
1:42 am 01:42 Cloudy 50 10 46 8 88 88 NNW 8 13 29.88 1012 10 16.0934 0 0
1:53 am 01:53 Cloudy 51 10.6 48 8.9 89 89 N 7 11 29.8 1009 10 16.0934 0 0
2:53 am 02:53 Cloudy 52 11.1 48 8.9 86 86 NE 5 7 29.78 1008 10 16.0934 0 0
3:16 am 03:16 Cloudy 52 11.1 48 8.9 86 86 NNE 5 7 29.83 1010 10 16.0934 0 0
3:53 am 03:53 Cloudy 52 11.1 48 8.9 86 86 ESE 5 7 29.79 1009 10 16.0934 0 0
4:53 am 04:53 Cloudy 51 10.6 47 8.3 86 86 VRB 5 7 29.82 1010 10 16.0934 0 0
5:53 am 05:53 Cloudy 51 10.6 47 8.3 86 86 W 5 7 29.84 1011 10 16.0934 0 0
6:45 am 06:45 Partly Cloudy 51 10.6 47 8.3 86 86 WNW 3 6 29.88 1012 10 16.0934 0 0
6:53 am 06:53 Mostly Sunny 52 11.1 47 8.3 83 83 Calm 29.87 1012 10 16.0934 0 0
7:53 am 07:53 Sunny 55 12.8 48 8.9 77 77 VRB 5 7 29.87 1012 10 16.0934 0 0
8:53 am 08:53 Sunny 60 15.6 46 7.8 60 60 W 7 11 29.85 1011 10 16.0934 0 0
9:53 am 09:53 Sunny 64 17.8 44 6.7 48 48 W 7 11 29.86 1011 10 16.0934 0 0
10:53 am 10:53 Sunny 68 20 42 5.6 39 39 W 9 15 29.85 1011 10 16.0934 0 0
11:53 am 11:53 Mostly Sunny 71 21.7 40 4.4 32 32 W 9 15 29.84 1010 10 16.0934 0 0
12:53 pm 12:53 Mostly Sunny 70 21.1 36 2.2 29 29 W 23 37 29.85 1011 10 16.0934 0 0.0254
1:49 pm 13:49 Mostly Sunny 73 23 37 3 27 27 WNW 15 24 29.71 1006 10 16.0934 0 0
1:53 pm 13:53 Mostly Sunny 72 22.2 36 2.2 27 27 WNW 13 20 29.83 1010 10 16.0934 0 0
2:53 pm 14:53 Mostly Sunny 72 22.2 36 2.2 27 27 WSW 9 15 29.83 1010 10 16.0934 0 0
3:53 pm 15:53 Mostly Sunny 67 19.4 35 1.7 31 31 SSW 15 24 29.82 1010 10 16.0934 0 0
4:53 pm 16:53 Mostly Sunny 70 21.1 37 2.8 30 30 SSW 16 26 29.81 1010 10 16.0934 0 0
5:53 pm 17:53 Sunny 72 22.2 37 2.8 28 28 SSW 14 22 29.8 1009 10 16.0934 0 0
6:53 pm 18:53 Mostly Cloudy 70 21.1 37 2.8 30 30 SSW 7 11 29.83 1010 10 16.0934 0 0
7:53 pm 19:53 Mostly Sunny 65 18.3 43 6.1 45 45 SSE 10 17 29.84 1010 10 16.0934 0 0
8:53 pm 20:53 Partly Cloudy 61 16.1 44 6.7 54 54 ENE 12 19 29.85 1011 10 16.0934 0 0
9:53 pm 21:53 Mostly Clear 56 13.3 46 7.8 70 70 WNW 3 6 29.89 1012 10 16.0934 0 0
10:53 pm 22:53 Clear 50 10 44 6.7 80 80 N 6 9 29.88 1012 10 16.0934 0 0
11:53 pm 23:53 Clear 49 9.4 44 6.7 83 83 N 7 11 29.87 1011 10 16.0934 0 0

Powered by AerisWeather